ZTF彗星

C/2020 V2 ( ZTF )

English version
Home page
Updated on November 26, 2022

---------------------------------------------------------------------

・ プロフィール

発見日 2020年11月2日
発見光度 19.0等
発見者 Zwicky Transient Facility

・ 写真集

・ 軌道要素

Epoch 2022 Aug. 9.0 TT = JDT 2459800.5
T 2023 May 8.53946 TT                                   Rudenko
q   2.2280106            (2000.0)            P               Q
z  -0.0004422      Peri.  162.41950     +0.69777090     +0.59403821
 +/-0.0000005      Node   212.37014     +0.53386617     -0.05867805
e   1.0009852      Incl.  131.61101     +0.47760097     -0.80229390
>From 2985 observations 2020 Apr. 18-2022 Nov. 2, mean residual 0".4.

・ 星図

・ 光度変化

        m1 = -19.4 + 5 logΔ + 35   log r  [    ,-910]  (              〜2020年11月 9日)
        m1 =   4.0 + 5 logΔ + 10.0 log r  [-910,    ]  (2020年11月 9日〜              )

---------------------------------------------------------------------

軌道要素はM.P.E.C. 2022-V95に掲載されたものです。
星図はステラナビゲータ Ver.10 (アストロアーツ) で作成したものです。
光度グラフはComet for Windowsで作成したものです。

---------------------------------------------------------------------

Copyright(C) Seiichi Yoshida (comet@aerith.net). All rights reserved.